{"data":{"norad_id":63871,"intl_designator":"2025-094H","name":"STARLINK-34013","alt_names":[],"object_type":"PAYLOAD","status":"ACTIVE","operator":null,"country":"US","launch_date":"2025-05-10","launch_site_code":"AFWTR","launch_vehicle":null,"mission":null,"orbit_class":"UNKNOWN","rcs_meters":null,"size_class":null,"mass_kg":null,"dimensions":null,"purposes":["comms"],"wikipedia_slug":null,"has_3d_model":false,"image_url":null,"decayed_at":null,"tle_current":{"epoch":"2026-05-25T02:46:51.320064Z","epoch_age_seconds":61194,"freshness":"FRESH","line1":"1 63871U 25094H   26145.11587176  .00002819  00000+0  24392-3 0  9991","line2":"2 63871  70.0015  41.6653 0002831 269.0599  91.0236 14.98337104 58654","mean_motion":14.98337104,"eccentricity":0.0002831,"inclination_deg":70.0015,"raan_deg":41.6653,"arg_perigee_deg":269.0599,"mean_anomaly_deg":91.0236,"bstar":0.00024392,"rev_number":5865,"period_min":96.106543457793,"perigee_km":570.06632910907,"apogee_km":574.00151588539,"semimajor_km":6950.1709224972,"source":"CELESTRAK","updated_at":"2026-05-25T13:38:20.170577Z"}}}